Regional Weather Roundup
Issued by NWS

Home | Current Version | Previous Version | Graphics & Text | Print | Product List | Glossary On
Versions: 1 2 3 4 5 6 7 8 9 10 11 12 13 14 15 16 17 18 19 20 21 22 23 24 25 26 27 28 29 30 31 32 33 34 35 36 37 38 39 40 41 42 43 44 45 46 47 48 49 50
000
ASUS43 KDMX 280206
RWRIA

WEATHER ROUNDUP FOR IOWA
NATIONAL WEATHER SERVICE DES MOINES IA
900 PM CDT THU JUL 27 2017

NOTE: "FAIR" INDICATES FEW OR NO CLOUDS BELOW 12,000 FEET WITH NO
SIGNIFICANT WEATHER AND/OR OBSTRUCTIONS TO VISIBILITY.

* - THESE STATIONS ARE NOT NWS STATIONS...THUS NOT UNDER NWS
QUALITY CONTROL.  THEY ALSO DO NOT REPORT WEATHER SUCH
AS PRECIPITATION OR FOG.

IAZ001>003-012>014-020>022-031>034-043>046-280300-
   NORTHWEST IOWA

CITY           SKY/WX    TMP DP  RH WIND       PRES   REMARKS
CARROLL *      CLEAR     73  68  83 CALM      30.01R
CHEROKEE *     CLEAR     75  62  64 CALM      30.03R
DENISON *      PTCLDY    73  64  73 NE5       30.03S
ORANGE CITY *  CLEAR     75  64  69 CALM      30.05R
SHELDON *      CLEAR     70  64  83 NE5       30.03S
SIOUX CITY     CLOUDY    78  62  57 NE6       30.02R HX  80
SPENCER        CLEAR     72  63  73 NE6       30.04S
STORM LAKE *   CLEAR     73  64  73 NE7       30.04R
$$

IAZ055>058-069>071-079>083-090>094-280300-
   SOUTHWEST IOWA

CITY           SKY/WX    TMP DP  RH WIND       PRES   REMARKS
ATLANTIC *     CLEAR     73  64  73 N6        30.00R
AUDUBON *      CLEAR     72  66  83 CALM      30.02S
CLARINDA *     CLEAR     73  68  83 N6        30.00R
COUNCIL BLFS * CLEAR     75  66  73 NE5       30.01R
CRESTON *      CLEAR     73  61  64 NE8       30.00S
HARLAN  *      CLEAR     72  66  83 N3        30.04R
LAMONI         CLEAR     77  64  64 NE8       29.97R
RED OAK *      CLEAR     72  68  88 N6        29.99R
SHENANDOAH *   CLEAR     72  68  88 N5        29.99R
$$

IAZ047>049-059>061-072>074-084-280300-
   CENTRAL IOWA

CITY           SKY/WX    TMP DP  RH WIND       PRES   REMARKS
AMES           CLEAR     74  65  73 NE3       29.99R
ANKENY *       CLEAR     73  64  73 NE3       29.99S
BOONE *        CLEAR     72  64  78 NE3       29.99S
CHARITON *     CLEAR     75  63  64 N7        29.97R
DES MOINES     PTCLDY    77  59  53 NE7       29.97S
GRINNELL*      CLEAR     72  61  67 N6        30.00R
KNOXVILLE *    CLEAR     77  61  57 N7        29.96S
MARSHALLTOWN   CLEAR     73  66  78 N5        29.98S
NEWTON *       CLEAR     73  63  68 NE7       29.98S
PELLA *        CLEAR     73  63  69 CALM      29.98S
PERRY *          N/A     70  68  93 CALM      30.00S
$$

IAZ004>006-015-016-023>025-035-036-280300-
   NORTH CENTRAL IOWA

CITY           SKY/WX    TMP DP  RH WIND       PRES   REMARKS
ALGONA *       CLEAR     72  66  83 N5        30.02F
CLARION *      CLEAR     72  70  94 N6        30.01S
ESTHERVILLE    CLEAR     69  64  84 N6        30.03F
FORT DODGE *   PTCLDY    75  64  69 N5        30.02S
MASON CITY     CLEAR     69  64  84 N5        30.03S
FOREST CITY *    N/A     72  64  78 N5        30.02S
WEBSTER CITY * CLEAR     70  66  88 N3        29.99S
IOWA FALLS *   CLOUDY    76  66  71 CALM      30.01S
$$

IAZ007>011-017>019-026>030-037>042-050>054-066-280300-
   NORTHEAST IOWA

CITY           SKY/WX    TMP DP  RH WIND       PRES   REMARKS
CHARLES CITY * CLEAR     72  68  88 N3        30.01S
DECORAH *      CLEAR     73  64  73 N3        29.99S
DUBUQUE        CLEAR     72  62  71 NE5       29.98F
MONTICELLO *   CLEAR     68  66  94 NE3       29.97R
WATERLOO       CLEAR     71  65  81 CALM      29.97S
$$

IAZ064-065-067-068-078-280300-
   EAST CENTRAL IOWA

CITY           SKY/WX    TMP DP  RH WIND       PRES   REMARKS
DAVENPORT      CLEAR     71  65  81 NE6       29.97R
IOWA CITY      CLEAR     78  65  63 NE9       29.96S HX  80
MT. PLEASANT * CLEAR     73  68  86 N7        29.94S
MUSCATINE *    CLEAR     73  68  83 N6        29.94S
QUAD CITIES    CLEAR     78  63  59 NE7       29.94R HX  80
$$

IAZ062-063-075>077-085>089-095>099-280300-
   SOUTHEAST IOWA

CITY           SKY/WX    TMP DP  RH WIND       PRES   REMARKS
BURLINGTON     PTCLDY    78  71  79 NE9       29.93R HX  80
FAIRFIELD *    CLEAR     72  66  83 N6        29.95R
FORT MADISON * PTCLDY    75  70  83 N5        29.94S
KEOKUK *       CLEAR     79  70  73 N6        29.91F HX  81
OSKALOOSA *      N/A     72  63  72 N6        29.97R
CENTERVILLE *    N/A     73  64  73 CALM      29.97S
OTTUMWA        CLEAR     76  61  59 N6        29.95S
WASHINGTON *   CLEAR     73  68  83 N7        29.96S
$$

ABBREVIATIONS USED IN REMARKS
   TC - TEMPERATURES IN CELSIUS
  WCI - WIND CHILL INDEX
   HX - HEAT INDEX
  VSB - VISIBILITY
$$




USA.gov is the U.S. government's official web portal to all federal, state and local government web resources and services.